Theta_e
306 307 307 308 309 309 310 310 310 310 310 310 309 310 309 309 309 309 309 310 310 309 309 309 310 310 310 310 310 310 311 311 311 312 312 313 313 314 314 315 315 315 316 316 316 316 316 316 315 315 315 315 315 315 315 314 314 313 313 314 314 314
304 305 305 307 307 309 309 309 310 310 309 310 310 309 309 309 310 310 310 310 310 309 309 309 309 310 310 310 310 310 310 310 310 311 311 311 312 312 313 313 314 314 314 314 315 315 315 314 314 314 314 314 314 314 314 314 313 312 311 312 312 312
304 303 304 305 306 308 309 309 309 309 309 310 310 310 310 310 310 310 310 310 310 310 309 309 309 309 309 309 309 309 309 309 309 310 310 310 310 310 311 312 312 312 313 313 313 313 313 313 313 313 313 313 313 313 313 313 312 311 310 310 310 310
303 302 303 304 305 307 307 307 308 308 308 308 308 309 309 309 309 309 310 309 309 309 309 309 309 308 308 308 308 308 308 308 308 308 309 309 309 309 310 310 310 311 311 311 312 312 312 312 312 312 312 312 312 312 312 312 311 311 310 309 309 309
302 302 303 302 303 304 304 305 306 306 307 307 308 308 308 308 308 308 309 309 309 308 308 308 308 308 307 307 307 307 307 307 307 307 308 308 308 308 309 309 309 309 309 310 310 310 311 311 311 311 311 311 311 311 311 311 311 310 309 308 308 308
301 301 301 301 302 302 303 304 304 305 306 306 307 307 307 308 308 308 309 309 308 308 308 308 308 307 307 306 306 306 306 306 307 307 307 307 307 307 308 308 308 308 308 308 309 309 309 310 310 310 310 310 310 311 311 310 310 310 309 307 307 307
300 300 300 299 300 301 302 303 303 304 305 305 306 306 306 307 307 308 308 308 308 308 307 308 307 307 307 307 307 306 306 307 306 306 306 306 307 307 307 307 307 307 307 307 308 308 308 308 308 308 309 309 309 310 309 309 308 308 307 307 306 306
299 299 299 299 300 300 301 302 302 303 303 304 305 305 306 307 306 307 307 307 308 307 307 308 307 307 307 307 307 307 307 307 307 307 306 306 306 306 306 306 306 306 306 306 307 307 307 307 307 307 307 308 308 308 308 308 307 307 306 306 306 306
299 298 298 298 298 299 299 300 301 302 302 303 304 304 306 306 306 307 307 307 307 307 307 307 307 307 307 307 308 307 308 308 307 307 307 306 306 306 305 305 305 305 305 305 306 306 306 306 306 306 307 307 307 307 307 307 306 306 306 306 306 306
298 297 297 297 297 297 298 299 300 300 300 300 301 303 304 305 306 306 306 306 307 306 306 306 306 306 306 307 307 307 307 307 307 307 307 307 306 306 305 305 305 305 305 305 305 305 305 305 305 306 306 306 306 306 306 306 305 304 304 304 305 305
297 296 296 296 297 298 298 299 299 299 299 299 300 301 302 303 304 304 304 305 304 304 305 305 305 305 305 306 306 306 307 306 306 306 306 306 306 306 306 305 305 305 305 305 305 304 304 305 305 305 306 305 305 305 305 304 304 303 303 303 304 305
295 295 295 296 297 297 298 298 298 298 299 299 300 301 301 301 301 302 302 302 302 302 302 303 303 304 304 304 305 305 305 305 306 306 305 305 305 305 305 305 305 304 304 304 304 304 304 304 305 305 305 305 305 304 304 303 302 302 302 303 303 304
294 295 296 296 297 297 297 297 298 298 298 298 299 299 299 299 300 300 300 300 300 300 301 301 301 302 302 302 302 302 303 303 304 304 304 304 304 304 304 304 304 303 303 303 302 303 303 303 303 304 304 304 304 304 303 302 301 302 302 302 303 303
295 295 296 296 297 297 297 297 297 297 298 298 298 298 298 298 298 299 299 298 299 299 300 300 300 300 300 300 300 300 301 301 302 302 302 302 302 302 302 302 302 302 302 301 301 301 301 301 302 302 302 303 303 303 302 300 300 301 301 301 301 302
295 296 296 296 296 296 296 296 297 297 297 297 297 297 298 297 297 298 298 298 298 299 299 299 300 300 300 300 300 300 300 300 300 300 300 300 300 301 300 300 300 300 300 300 300 300 300 300 301 300 301 301 301 302 300 299 299 299 300 300 300 301
296 296 296 296 296 296 296 296 296 296 297 297 297 297 297 297 297 298 298 298 298 298 299 299 299 299 300 300 300 300 300 300 300 300 299 299 299 299 299 299 299 299 299 299 299 299 299 300 300 299 299 300 300 300 300 298 298 298 299 299 299 300
296 296 295 295 295 295 295 296 296 296 297 297 297 297 296 297 297 297 298 298 298 298 298 298 299 299 299 299 299 299 299 299 299 299 299 298 298 298 298 298 298 298 298 298 298 298 299 299 299 299 299 299 299 299 298 297 297 297 298 298 298 299
296 295 295 295 294 294 294 295 296 296 296 296 296 296 296 296 296 297 297 297 297 298 298 297 298 298 298 298 298 298 298 298 298 298 298 298 298 297 297 297 297 296 297 297 297 297 298 299 298 298 298 298 298 298 297 296 296 296 297 297 297 298
295 295 294 294 293 293 293 294 295 295 295 295 295 295 294 294 295 295 295 296 296 297 297 297 297 297 297 297 297 298 298 298 298 298 297 297 298 298 297 297 297 296 296 296 296 296 297 297 298 298 298 298 297 297 296 295 295 295 295 296 296 296
294 294 293 293 292 292 292 293 293 294 294 294 293 293 293 292 292 292 293 294 295 295 296 296 296 296 296 296 296 296 297 297 297 297 297 296 296 297 297 296 297 297 296 295 296 295 295 296 297 296 297 297 297 296 295 295 294 294 294 294 295 295
294 293 293 292 291 291 291 292 293 293 293 293 292 292 291 290 290 291 292 293 294 294 295 295 295 295 295 296 295 295 295 296 296 297 296 296 295 296 296 296 296 297 297 296 295 295 294 295 296 295 295 296 296 296 295 294 293 293 293 293 293 294
293 292 292 291 290 290 290 291 292 292 292 291 291 290 289 289 289 290 291 293 293 294 294 294 294 294 294 294 294 294 294 295 295 295 295 295 295 295 295 295 294 295 297 296 295 295 294 294 295 295 294 295 295 295 294 292 292 292 292 292 293 293
291 291 290 289 289 289 289 290 290 290 290 289 289 288 287 287 287 289 290 292 292 293 293 293 293 293 293 293 292 293 294 294 294 294 294 294 294 294 294 295 294 294 295 295 294 294 293 293 293 294 294 294 294 294 294 292 291 291 291 292 292 292
290 290 289 288 288 288 288 288 288 287 287 287 287 286 285 285 285 287 288 290 291 291 292 292 292 292 292 292 292 292 294 294 294 294 293 292 292 292 292 293 292 292 293 295 294 293 293 293 292 292 292 293 293 293 293 292 292 291 291 290 291 291
287 287 287 287 286 286 286 285 285 285 284 285 284 284 283 283 284 285 286 288 289 290 290 291 291 292 292 292 291 291 292 293 293 293 292 290 290 290 290 291 290 290 290 292 294 294 293 292 292 292 291 291 292 292 292 292 292 291 290 290 290 290
285 286 286 285 284 283 283 282 282 282 282 282 282 282 282 282 283 284 286 287 288 289 290 290 291 291 291 291 290 289 290 290 290 290 290 289 287 287 288 288 288 288 288 289 291 292 292 291 291 291 291 291 291 292 291 291 291 291 290 289 289 289
283 284 284 283 281 280 280 279 279 279 280 281 281 281 281 282 282 283 285 286 287 287 288 289 289 289 289 289 288 287 287 288 288 288 289 288 286 286 286 287 287 287 287 287 288 290 291 290 289 290 290 290 291 291 291 291 291 290 289 289 288 289
281 280 280 279 279 278 278 278 278 277 278 280 281 281 280 280 281 281 282 284 285 285 285 286 287 287 287 286 285 284 284 285 285 285 286 286 285 285 286 286 286 286 286 287 287 288 289 289 289 288 288 289 290 290 291 291 290 290 289 289 288 288
278 276 276 276 277 278 279 279 279 278 278 279 279 279 279 278 278 279 279 279 280 281 281 281 282 283 283 283 283 282 283 283 283 283 284 284 285 285 285 285 286 286 286 286 287 287 288 288 288 288 288 288 289 289 290 289 289 289 289 289 288 288
274 274 274 275 276 278 280 280 280 279 279 278 277 277 277 276 275 276 276 276 276 277 277 277 277 278 279 279 279 280 281 282 282 282 283 284 284 284 284 285 285 285 286 286 286 286 286 286 287 287 287 288 288 288 288 288 288 288 288 288 288 288
272 272 272 273 274 276 277 278 278 278 276 276 276 276 275 274 274 274 275 275 276 276 276 276 276 276 276 277 277 278 279 280 281 281 283 285 285 283 284 284 284 285 285 285 285 285 285 285 286 287 287 287 287 287 287 287 287 287 287 287 288 287
270 270 271 272 272 273 274 274 275 275 275 275 275 274 273 273 274 274 275 275 275 275 275 275 275 275 275 276 276 277 279 280 281 281 281 284 285 284 283 284 284 285 285 285 285 285 285 285 286 287 287 287 287 287 286 286 286 286 286 287 287 287
270 270 271 271 272 272 272 272 273 274 273 273 273 272 272 273 274 274 274 274 274 274 274 274 274 274 275 275 276 277 278 279 281 282 282 282 283 284 284 284 284 285 285 285 285 286 286 286 286 286 286 286 286 286 286 286 286 286 286 286 286 286
269 270 270 270 270 271 271 271 272 272 272 272 271 271 272 272 273 273 274 274 273 273 273 273 273 274 274 275 275 276 277 277 278 281 283 283 282 282 283 284 284 285 285 285 286 286 286 286 286 286 287 286 286 286 286 286 286 286 286 286 287 286
268 268 268 268 269 270 270 270 271 270 270 270 270 269 270 271 272 273 273 272 272 272 272 272 273 273 273 274 274 275 276 277 277 279 280 282 282 281 282 283 284 284 285 285 286 286 286 286 286 286 286 286 286 286 286 286 285 285 286 287 287 286
266 267 267 268 268 268 268 268 269 268 268 268 268 269 269 270 270 270 270 270 271 271 271 271 272 272 272 273 274 274 275 276 277 277 278 280 281 281 282 282 283 284 284 285 285 285 286 286 286 286 286 286 286 286 286 286 286 286 286 287 287 286
265 266 266 266 266 266 266 267 267 266 266 267 268 268 268 268 268 268 268 269 269 269 270 270 270 271 271 272 273 274 274 275 276 277 278 279 280 281 281 282 282 283 284 284 284 285 285 286 286 286 286 286 286 286 286 286 285 286 286 286 286 286
265 265 265 264 264 264 264 265 266 265 265 266 267 267 267 266 266 266 266 267 267 267 268 268 268 269 270 271 272 273 274 275 276 276 278 279 280 280 281 282 282 283 283 284 284 284 285 285 285 285 286 286 286 286 286 286 285 286 286 286 286 286
Wind_Speed
16 17 18 18 17 17 16 15 14 13 13 12 12 13 13 12 11 11 11 11 11 12 12 11 11 11 11 12 13 14 16 17 18 20 21 21 22 23 23 24 24 24 24 24 25 24 25 25 25 25 25 26 28 30 31 32 32 33 35 35 35 35
14 15 17 17 17 17 17 15 14 14 13 12 12 12 12 12 11 11 11 11 11 12 12 11 10 9 10 11 12 13 14 15 17 18 19 19 20 21 22 23 24 24 24 24 25 26 26 27 26 26 26 26 27 29 30 31 30 32 34 34 34 34
13 14 15 16 18 18 18 17 16 15 15 14 14 14 13 13 13 13 13 13 13 13 13 12 11 10 9 10 11 13 14 14 16 16 17 18 18 19 21 22 22 23 24 24 25 26 26 27 27 27 27 27 28 28 29 30 30 31 33 33 33 33
13 15 17 19 20 20 20 19 18 17 17 16 15 15 15 15 15 15 15 15 15 15 14 14 13 12 11 11 11 12 12 13 14 14 16 17 16 17 19 20 21 22 23 23 24 25 26 27 27 27 27 28 29 30 30 30 30 32 33 32 33 33
14 17 19 20 20 20 20 20 20 19 18 17 17 16 17 17 17 16 16 15 15 15 15 14 15 15 15 14 13 13 13 12 12 13 14 15 15 16 18 19 20 21 22 23 24 25 26 27 27 27 28 29 29 30 31 31 31 32 33 33 34 34
16 18 18 18 18 19 20 21 20 20 19 19 18 18 18 17 17 16 16 16 16 16 16 16 16 17 17 17 17 16 15 14 14 13 14 14 15 15 16 17 18 19 21 23 24 25 26 27 28 28 29 30 30 31 32 32 32 33 33 33 33 33
15 15 15 15 16 18 19 20 21 20 20 19 19 19 18 18 18 18 18 18 18 18 19 19 20 20 21 21 20 20 19 18 17 16 16 15 16 16 15 16 17 18 20 21 22 24 25 26 27 28 29 30 31 32 33 33 33 33 33 33 33 33
12 13 13 14 15 16 17 18 19 20 20 20 19 19 19 19 19 19 19 19 20 21 21 22 23 23 23 24 24 24 23 23 22 21 20 19 19 18 17 17 17 18 19 21 21 23 24 25 26 28 29 30 31 32 33 33 33 33 33 33 33 33
8 9 9 9 11 12 14 17 19 19 20 20 19 19 19 19 19 20 20 20 21 22 22 23 23 23 23 23 23 23 23 24 24 24 24 24 23 22 21 19 19 18 19 21 21 22 23 24 25 27 28 30 31 32 33 33 33 33 33 33 33 33
2 2 2 3 8 12 15 17 18 18 18 19 19 19 19 19 20 20 21 21 22 22 22 23 22 22 22 22 21 21 22 22 23 23 24 24 24 24 23 22 22 21 21 21 21 22 22 24 25 26 27 29 30 31 33 33 33 33 33 33 33 33
3 5 2 5 13 16 17 17 17 18 18 18 19 20 19 20 20 21 21 22 22 23 23 23 23 22 22 22 22 22 22 22 22 22 23 23 24 24 23 23 23 24 24 24 23 23 23 24 25 25 26 28 30 31 32 33 33 33 33 33 33 33
6 4 5 12 16 16 16 16 17 17 18 18 19 20 20 20 21 21 22 23 23 24 24 24 24 24 24 24 24 24 24 24 23 23 23 22 23 23 23 24 24 24 24 25 25 24 24 25 25 24 25 26 28 29 31 32 33 33 33 33 34 34
3 8 13 15 15 15 15 16 17 17 18 18 19 20 20 20 21 22 22 23 24 25 26 26 26 27 27 27 26 26 26 25 25 24 24 23 23 23 23 24 25 25 25 25 26 26 26 26 25 24 24 25 26 28 29 31 33 33 33 34 34 35
8 11 13 13 14 15 16 16 17 18 18 18 19 19 20 20 21 22 23 23 25 26 27 28 29 29 29 29 29 29 29 28 28 27 26 25 24 24 24 24 24 25 25 26 27 28 28 27 26 25 24 25 25 26 28 30 32 33 34 34 34 35
8 9 10 12 13 13 15 16 17 18 18 18 19 20 20 20 21 22 24 25 26 27 29 29 30 30 30 31 31 31 31 31 31 30 29 28 27 26 26 26 26 26 26 26 27 29 29 29 28 26 25 25 25 26 27 29 31 32 34 34 34 34
8 9 10 11 11 12 14 15 16 16 17 17 19 20 21 22 22 23 25 26 27 28 29 30 31 31 31 31 31 32 32 32 32 32 31 30 29 29 29 28 28 27 27 27 28 30 31 30 30 28 27 26 26 25 26 28 30 32 34 34 34 34
8 9 10 10 10 12 14 15 16 16 17 18 19 20 21 22 23 24 26 26 27 29 29 30 31 31 32 32 32 32 32 32 33 33 32 32 31 31 31 30 30 29 29 28 28 30 32 31 29 29 28 27 26 26 26 28 29 31 33 34 34 34
7 8 9 9 11 13 15 16 16 16 17 18 19 20 21 22 24 25 26 27 28 29 29 30 31 32 32 32 33 33 33 34 34 34 33 34 34 33 32 32 32 31 31 30 29 29 32 31 29 28 28 27 26 26 26 27 29 31 33 34 33 33
8 8 9 10 11 14 15 15 16 16 17 18 20 20 21 23 25 26 27 28 28 29 29 30 31 32 33 33 34 35 35 35 35 35 34 35 36 36 35 34 34 33 33 32 31 29 31 32 29 27 28 27 26 26 26 27 28 30 32 33 33 32
9 9 10 11 13 15 16 16 17 17 18 20 22 21 22 24 26 27 28 29 28 29 29 30 31 32 32 33 34 34 35 35 35 35 34 33 35 36 35 35 36 36 34 33 33 31 31 33 30 25 25 26 25 25 26 26 27 29 31 32 32 31
9 10 12 14 16 17 17 17 18 19 20 22 23 23 24 26 28 28 28 28 28 28 28 29 30 30 31 32 33 33 34 35 35 34 34 33 33 35 36 35 35 37 37 35 34 32 31 33 32 27 23 23 24 24 25 25 26 28 30 30 30 30
10 12 15 17 17 17 17 18 18 20 21 22 23 23 24 26 26 26 26 26 27 27 27 28 29 30 30 31 33 33 33 33 34 34 34 34 34 34 36 35 35 37 39 37 35 34 32 32 32 29 24 22 22 23 23 24 25 28 29 29 28 29
11 13 14 15 15 16 17 17 19 20 20 21 21 22 22 24 24 24 25 25 26 27 28 28 29 30 31 31 32 33 34 33 34 35 35 34 35 35 36 37 35 36 39 39 36 35 33 31 30 29 25 22 22 21 22 24 26 27 28 29 29 28
12 13 14 14 14 15 16 16 18 18 19 19 19 20 22 23 23 24 25 26 26 27 29 29 30 31 32 33 33 34 35 35 34 34 34 34 34 34 35 36 35 35 38 40 38 36 34 31 29 28 26 24 22 21 22 24 26 26 26 28 29 28
13 13 13 14 14 14 14 14 16 17 17 18 19 20 22 23 23 25 26 27 28 29 30 31 32 32 33 34 33 33 35 36 35 35 34 32 32 33 34 35 34 32 35 38 39 37 35 33 31 29 26 24 23 22 22 24 25 25 25 27 30 29
12 12 12 13 13 13 12 13 15 16 18 19 20 22 22 23 24 25 27 28 29 30 31 32 32 32 33 33 33 33 34 35 35 35 35 31 29 29 31 33 32 30 30 33 37 39 37 33 31 30 27 25 23 23 23 23 25 25 25 27 30 31
10 10 11 12 12 12 13 14 15 17 19 19 20 21 22 24 25 26 28 29 30 31 31 32 32 32 32 32 31 31 33 34 34 35 35 33 30 28 29 31 31 29 29 30 33 37 39 35 32 31 29 26 24 23 22 23 24 25 25 26 29 30
6 7 9 11 12 13 16 17 17 18 19 19 20 20 22 24 26 28 29 30 31 31 31 32 33 33 33 33 31 30 31 31 31 33 35 33 30 28 28 30 30 29 28 29 31 34 37 37 34 32 30 27 25 23 22 22 23 23 23 25 27 28
5 6 9 13 15 17 19 20 19 19 19 19 20 21 22 25 27 29 30 30 30 30 30 30 32 33 34 34 32 32 32 31 29 30 32 32 29 27 28 28 28 28 27 27 30 33 34 35 35 32 30 28 25 23 23 22 23 23 23 24 25 26
7 10 13 16 18 20 20 20 20 20 19 19 19 20 23 26 27 27 28 28 27 26 26 27 29 30 32 34 33 32 32 32 30 30 33 33 29 27 29 29 28 28 27 26 29 30 31 34 35 30 27 26 24 23 23 23 23 24 24 24 24 24
11 13 14 16 18 19 20 20 19 19 18 18 18 21 24 26 25 24 25 25 24 23 24 25 25 26 29 32 33 33 32 31 29 29 34 39 33 26 27 30 31 32 29 27 29 29 28 34 38 32 26 26 25 24 24 25 25 25 25 24 24 23
12 13 15 17 18 19 19 20 19 18 17 17 19 22 23 22 22 22 21 21 22 23 24 25 25 26 27 28 29 32 35 37 35 29 29 36 37 31 27 28 32 34 31 29 32 32 30 34 40 38 34 33 32 30 30 30 29 28 27 26 23 21
14 16 18 19 19 19 19 19 18 17 17 20 21 21 21 21 21 21 21 20 22 23 23 25 26 27 27 26 26 26 29 35 41 40 35 31 32 34 34 30 30 32 32 32 35 36 34 35 38 39 38 37 35 34 33 33 31 29 27 25 22 21
17 18 18 17 18 18 17 16 17 18 19 21 20 20 20 21 21 21 22 23 24 24 24 25 26 26 26 26 26 26 25 26 32 41 45 40 32 29 33 34 32 31 31 31 32 34 35 36 35 34 36 36 35 35 35 33 32 30 27 23 22 24
15 15 15 15 15 15 14 16 18 19 19 19 20 20 21 20 20 21 23 24 25 26 25 24 24 25 26 27 27 27 27 26 24 28 38 45 42 35 32 31 30 28 28 28 29 29 32 34 34 33 33 34 34 35 35 33 31 29 26 24 25 26
13 13 12 12 13 14 16 18 19 19 18 19 20 20 18 19 21 23 24 24 25 26 27 27 26 27 27 28 28 27 27 27 27 26 27 32 37 37 35 32 28 25 25 27 29 29 30 32 34 33 32 33 33 32 30 30 30 28 25 26 28 27
12 11 10 12 14 16 18 19 19 18 19 19 19 18 19 22 25 26 26 26 25 26 29 31 30 30 29 29 29 29 28 27 28 28 27 26 27 29 32 33 32 29 28 29 31 33 32 32 33 33 32 33 33 30 26 26 27 26 25 26 27 27
10 10 11 14 16 17 18 18 18 18 19 19 19 21 25 28 28 28 29 29 28 28 30 32 32 31 31 31 31 30 30 30 29 28 28 28 28 27 29 32 34 35 34 33 33 34 33 32 31 31 31 32 31 28 26 25 26 25 24 24 25 25
Wind_Direction
44 44 46 48 51 51 51 51 48 42 35 29 27 24 21 18 12 9 5 358 353 351 347 343 334 328 324 317 311 303 295 293 292 290 290 290 288 284 282 279 277 275 274 272 271 270 268 266 265 263 262 261 261 261 261 260 258 256 256 256 256 256
45 45 45 48 53 55 54 54 52 48 42 38 35 29 24 22 16 12 8 3 358 356 356 353 347 341 333 327 320 312 308 305 301 298 298 297 293 289 285 282 280 278 277 275 274 273 270 268 266 264 262 260 260 260 261 262 260 257 257 257 257 257
47 47 48 51 56 58 57 55 51 48 44 40 36 31 26 23 21 19 15 13 10 9 10 8 7 4 352 342 333 326 324 319 312 308 305 301 299 296 291 287 285 283 281 280 277 275 274 272 269 267 265 262 261 261 261 261 260 258 259 259 259 259
44 44 46 48 52 53 52 51 48 46 43 40 37 33 29 24 22 22 21 21 20 19 20 18 18 17 10 3 353 343 338 330 323 317 309 305 304 300 294 292 290 287 285 282 280 278 276 274 271 269 266 264 264 264 263 262 260 259 259 258 258 258
48 46 45 45 47 48 49 49 47 45 41 38 36 32 28 24 21 21 22 23 25 26 25 22 21 19 15 12 6 359 353 344 337 329 319 316 314 307 301 298 295 292 287 284 281 279 277 275 273 270 268 266 266 266 266 265 262 260 260 258 258 259
46 43 41 40 43 44 47 48 47 46 43 40 38 33 29 26 23 22 23 24 26 25 23 20 18 16 13 11 8 5 1 355 350 343 334 328 323 318 313 307 301 297 292 288 286 284 281 279 277 274 271 269 269 269 268 267 265 263 262 261 261 261
41 38 35 36 39 42 45 48 48 47 45 42 39 37 36 34 31 30 28 27 26 23 22 20 16 13 11 8 6 3 1 358 354 350 345 338 332 328 323 317 311 304 299 295 292 290 287 285 282 279 277 275 274 272 270 269 267 265 265 264 264 264
41 37 33 33 39 43 44 46 46 46 45 43 40 37 38 38 37 35 33 29 26 24 22 19 16 13 10 7 4 0 358 356 353 351 349 344 339 337 332 325 319 312 306 303 300 297 294 292 288 284 282 281 278 276 273 271 270 268 267 267 267 267
44 35 32 34 42 45 46 45 44 42 40 39 38 37 38 39 38 36 33 29 26 24 22 19 16 13 9 6 3 359 357 355 352 350 349 346 343 341 338 332 326 319 312 307 304 302 299 296 293 289 287 284 281 279 276 274 272 270 269 268 268 268
68 41 29 40 48 48 47 44 41 39 36 33 34 35 36 38 38 35 32 29 27 25 22 20 17 14 11 8 4 1 358 355 352 350 348 345 343 342 339 336 330 325 319 314 309 306 302 298 294 291 289 287 285 282 279 276 275 273 271 270 270 270
196 199 190 51 46 43 42 39 36 35 34 31 32 34 35 36 36 35 32 29 27 24 21 19 17 15 12 9 6 4 1 358 355 351 348 345 342 340 338 334 331 327 324 321 317 312 307 301 297 295 293 290 288 285 282 279 277 274 273 272 272 272
191 171 70 48 42 37 35 34 31 31 30 30 33 34 34 34 33 32 30 27 24 21 18 16 15 13 11 9 7 5 3 360 357 353 350 346 342 339 336 332 330 327 324 321 318 314 310 306 304 302 299 295 291 288 284 281 278 275 274 272 272 271
102 53 44 41 36 33 31 28 26 27 27 28 30 31 30 31 30 28 25 22 19 17 14 13 11 10 9 7 6 4 2 1 358 355 351 348 343 340 336 333 330 328 325 321 317 313 310 308 307 305 301 297 294 289 285 281 278 276 274 272 271 270
45 40 37 35 33 31 27 22 22 23 23 24 25 26 26 26 25 23 20 18 15 13 10 8 7 6 5 3 1 1 359 358 357 355 352 349 345 341 338 335 332 329 327 323 318 315 313 311 309 307 303 299 295 292 287 282 278 275 273 271 270 269
48 44 39 36 32 29 24 20 19 17 17 20 20 20 21 21 20 17 15 13 11 9 7 5 3 2 1 359 358 356 356 355 354 353 351 348 345 342 339 337 334 331 329 324 320 317 315 313 313 311 308 304 299 295 290 284 278 275 273 271 270 269
56 48 43 39 32 28 24 20 18 16 17 19 18 18 17 15 14 12 10 9 8 5 3 1 359 358 357 356 355 353 353 352 350 350 348 345 343 341 339 337 334 332 329 325 322 318 315 315 316 315 312 309 305 300 294 286 281 277 273 271 270 268
60 49 44 41 31 25 21 18 17 16 17 18 16 15 13 11 9 7 5 4 3 1 360 357 355 354 352 352 351 350 349 349 347 347 345 342 340 338 336 335 333 331 329 327 323 319 316 316 317 317 314 312 309 304 296 289 283 278 275 272 270 269
62 51 44 40 31 23 18 15 14 14 14 15 14 12 9 7 4 2 1 360 358 357 356 353 351 350 348 348 347 346 346 346 345 345 343 340 338 336 334 333 330 328 327 326 324 319 317 317 318 317 315 312 310 305 298 290 285 280 276 274 272 271
59 52 43 39 32 21 15 11 10 11 12 12 11 9 6 3 1 359 356 355 353 352 351 349 347 346 346 345 345 343 343 343 342 343 341 338 335 334 333 331 328 326 325 323 322 320 316 317 319 318 314 312 309 305 298 292 286 281 278 276 274 272
53 47 38 35 30 19 12 9 8 9 9 9 8 6 4 1 358 355 351 349 348 347 347 346 344 343 343 342 342 340 339 339 339 339 338 336 332 330 329 328 326 324 323 321 320 319 315 315 318 318 313 310 307 303 297 292 286 282 279 278 277 276
45 42 33 29 24 16 9 7 6 6 6 5 4 2 360 356 352 348 345 343 342 341 341 341 340 340 339 338 337 336 335 335 334 334 334 333 330 328 327 326 324 322 321 320 319 317 315 314 316 318 314 310 306 301 296 290 283 279 277 277 277 277
37 34 29 23 16 10 6 4 4 4 2 0 359 358 355 349 344 341 338 336 336 336 337 337 336 336 335 334 333 332 332 331 331 331 331 330 329 327 325 324 322 320 319 319 318 316 314 313 315 317 316 312 306 300 294 287 279 274 275 276 275 275
34 31 27 20 11 8 6 2 1 0 356 354 355 352 345 339 336 335 334 333 334 333 334 334 334 333 333 332 332 330 328 329 329 328 328 328 327 325 323 323 321 319 318 318 316 315 314 314 314 316 317 313 307 302 293 284 277 274 273 275 274 272
26 25 21 17 11 9 6 360 356 353 348 347 347 341 335 333 334 334 333 333 332 332 332 332 332 332 331 330 330 328 326 326 327 326 325 325 324 323 321 319 319 317 316 316 315 314 314 314 313 314 316 315 309 303 295 286 281 278 273 272 272 270
17 15 13 12 10 9 6 356 349 344 340 340 339 333 331 334 335 334 333 332 332 332 331 330 329 329 328 327 328 326 324 324 324 323 323 322 321 319 317 315 315 314 312 313 313 312 312 312 312 312 313 314 310 304 297 290 285 281 273 268 268 269
9 7 8 8 6 4 1 353 345 341 339 338 334 331 333 336 335 333 332 332 331 330 328 326 325 324 324 324 325 323 321 322 322 321 320 319 318 315 312 311 312 310 308 307 309 310 310 309 310 310 310 311 310 305 299 293 288 284 277 269 268 269
8 359 355 357 359 356 352 353 350 342 338 336 334 334 336 336 334 333 332 330 329 327 325 322 321 321 321 322 323 321 319 319 319 317 317 316 314 311 308 308 308 306 304 302 302 305 307 308 307 306 306 308 308 304 299 295 291 287 281 273 270 269
10 346 338 344 352 351 350 353 353 344 339 338 338 338 337 335 334 332 330 329 327 326 325 323 322 322 322 321 321 319 317 315 314 312 311 309 307 306 304 303 303 302 300 299 298 300 303 305 304 303 304 306 306 303 300 296 294 292 287 280 273 270
2 342 339 345 351 352 350 351 351 348 344 344 344 343 338 335 333 330 328 328 327 325 326 325 322 322 321 320 320 319 316 314 311 307 305 302 302 302 300 298 298 297 295 295 297 298 300 301 301 300 302 304 304 301 299 296 293 293 291 285 278 270
2 356 352 350 352 351 348 348 349 348 348 350 351 345 336 331 329 327 325 326 325 323 323 322 320 320 319 318 318 316 313 312 310 305 301 298 296 294 295 294 292 290 290 291 293 295 297 297 295 296 300 304 304 300 297 293 291 290 287 283 279 270
4 359 354 351 350 348 347 348 349 351 355 355 346 336 330 328 326 324 323 324 323 321 320 318 316 316 316 315 315 314 310 307 304 300 298 299 297 289 286 288 287 286 286 286 287 287 287 289 290 292 297 299 298 295 291 288 287 286 283 281 277 265
2 357 354 352 350 350 349 350 352 357 357 343 330 328 330 329 325 321 320 321 321 320 320 317 315 315 314 312 311 311 310 308 305 297 291 295 298 294 286 281 282 286 287 284 283 283 279 279 286 291 294 292 290 288 285 285 285 283 280 278 271 254
1 358 356 353 352 352 352 352 354 351 336 325 327 334 335 329 323 317 316 318 318 319 319 317 315 314 313 311 310 309 308 308 309 306 298 292 292 296 295 287 280 283 285 281 281 284 283 282 285 289 291 290 288 287 285 284 285 282 277 271 257 239
360 356 353 352 353 354 352 346 339 330 326 330 339 340 333 326 321 316 315 317 317 316 315 314 313 313 312 311 312 311 307 304 306 308 308 305 296 291 293 292 285 281 280 279 279 281 284 285 286 288 290 290 288 286 284 284 283 280 275 265 246 231
354 350 351 352 353 349 338 327 327 333 339 342 339 333 329 326 322 316 314 315 314 313 311 310 310 309 308 307 307 307 306 303 298 299 305 308 306 301 295 291 288 284 282 281 281 280 282 285 288 288 289 290 288 285 283 282 279 275 270 259 241 230
347 350 356 352 343 334 326 328 338 346 343 336 333 333 330 324 319 314 310 309 309 307 306 305 305 304 303 302 302 301 299 298 296 293 294 299 305 307 304 298 293 289 286 286 286 285 284 286 287 287 287 289 288 284 280 277 273 270 265 254 239 230
347 356 355 340 333 332 333 339 346 343 337 337 340 337 326 318 316 313 308 306 305 302 301 302 302 301 300 298 297 297 295 294 294 293 289 288 291 297 300 299 297 295 292 290 290 290 289 287 286 285 287 289 286 281 277 274 269 264 259 249 238 230
353 354 344 337 338 338 337 341 346 343 344 346 339 326 319 317 316 312 308 307 306 303 302 301 300 299 298 295 293 292 292 292 290 288 287 285 284 284 288 292 294 296 295 293 291 292 291 289 286 285 287 288 285 279 274 268 262 257 252 243 235 231